GW0463 Weather Reports


time (UTC)temp
C
wind
direction
speed
KPH
gust
KPH
rain 1hr
cm
rain 24hr
cm
rain mn
cm
humidity
%
barometer
mb
20260508213053 25 225 8.0 19.3 0.00 0.00 0.00 18 1014.9
20260508211555 25 265 1.6 11.3 0.00 0.00 0.00 20 1015.0
20260508210055 25 0 1.6 9.7 0.00 0.00 0.00 20 1015.0
20260508204555 24 281 1.6 8.0 0.00 0.00 0.00 24 1015.2
20260508203108 24 297 3.2 12.9 0.00 0.00 0.00 21 1015.4
20260508201605 24 263 6.4 19.3 0.00 0.00 0.00 19 1015.8
20260508200057 23 177 4.8 14.5 0.00 0.00 0.00 21 1015.8
20260508194559 23 45 3.2 8.0 0.00 0.00 0.00 21 1015.8
20260508193102 23 0 3.2 14.5 0.00 0.00 0.00 19 1016.0
20260508191600 23 271 4.8 11.3 0.00 0.00 0.00 20 1016.0
20260508190056 23 269 1.6 9.7 0.00 0.00 0.00 22 1016.1
20260508184556 23 249 4.8 9.7 0.00 0.00 0.00 24 1016.1
20260508183056 23 0 1.6 17.7 0.00 0.00 0.00 27 1016.3
20260508181557 23 160 1.6 8.0 0.00 0.00 0.00 26 1016.3
20260508180059 23 173 3.2 11.3 0.00 0.00 0.00 23 1016.4
20260508174559 23 223 0.0 11.3 0.00 0.00 0.00 24 1016.6
20260508173054 22 140 1.6 6.4 0.00 0.00 0.00 25 1016.6
20260508171557 21 0 0.0 3.2 0.00 0.00 0.00 24 1016.6
20260508170052 21 258 0.0 9.7 0.00 0.00 0.00 23 1016.7
20260508164555 21 217 0.0 8.0 0.00 0.00 0.00 30 1016.7
20260508163054 20 184 1.6 8.0 0.00 0.00 0.00 29 1016.6
20260508161559 20 0 0.0 3.2 0.00 0.00 0.00 32 1016.4
20260508160058 19 0 0.0 6.4 0.00 0.00 0.00 35 1016.4
20260508154610 18 96 0.0 4.8 0.00 0.00 0.00 38 1016.6
20260508153059 17 187 0.0 3.2 0.00 0.00 0.00 41 1016.6
20260508151600 16 0 0.0 4.8 0.00 0.00 0.00 49 1016.5
20260508150110 14 0 0.0 1.6 0.00 0.00 0.00 55 1016.4
20260508144557 12 0 0.0 3.2 0.00 0.00 0.00 62 1016.3
20260508143135 11 0 1.6 4.8 0.00 0.00 0.00 66 1016.3
20260508141605 10 0 0.0 6.4 0.00 0.00 0.00 71 1016.3
20260508140110 8 0 0.0 0.0 0.00 0.00 0.00 73 1016.0
20260508134635 7 0 0.0 0.0 0.00 0.00 0.00 73 1015.7
20260508133107 7 0 0.0 0.0 0.00 0.00 0.00 73 1015.8
20260508131602 7 0 0.0 1.6 0.00 0.00 0.00 72 1015.5
20260508124558 6 0 0.0 6.4 0.00 0.00 0.00 70 1015.1
20260508123054 6 0 0.0 0.0 0.00 0.00 0.00 69 1014.9
20260508121552 7 0 0.0 0.0 0.00 0.00 0.00 69 1014.9
20260508120100 7 0 0.0 3.2 0.00 0.00 0.00 69 1014.7
20260508114552 7 0 0.0 0.0 0.00 0.00 0.00 69 1014.6
20260508113055 7 0 0.0 0.0 0.00 0.00 0.00 69 1014.5
20260508111600 7 0 0.0 0.0 0.00 0.00 0.00 69 1014.5
20260508104555 7 0 0.0 0.0 0.00 0.00 0.00 70 1014.2
20260508103104 7 0 0.0 0.0 0.00 0.00 0.00 70 1014.3
20260508101557 7 0 0.0 0.0 0.00 0.00 0.00 69 1014.2
20260508100056 7 0 0.0 0.0 0.00 0.00 0.00 69 1014.0
20260508094559 7 0 0.0 0.0 0.00 0.00 0.00 68 1014.0
20260508093104 7 0 0.0 1.6 0.00 0.00 0.00 67 1014.0
20260508091610 8 0 0.0 0.0 0.00 0.00 0.00 66 1014.1
20260508090104 8 0 0.0 0.0 0.00 0.00 0.00 66 1014.0
20260508084613 8 0 0.0 1.6 0.00 0.00 0.00 65 1014.1
20260508083108 8 0 0.0 3.2 0.00 0.00 0.00 64 1014.1
20260508081556 8 0 0.0 0.0 0.00 0.00 0.00 63 1014.1
20260508080107 9 0 0.0 0.0 0.00 0.00 0.00 63 1014.2
20260508074609 9 0 0.0 0.0 0.00 0.00 0.00 62 1014.1
20260508073059 9 0 0.0 0.0 0.00 0.00 0.00 61 1013.9
20260508071555 10 0 0.0 1.6 0.00 0.00 0.00 60 1014.0
20260508070056 10 0 0.0 1.6 0.00 0.00 0.00 59 1014.0
20260508064559 10 0 0.0 0.0 0.00 0.00 0.00 58 1013.9
20260508063055 11 0 0.0 0.0 0.00 0.00 0.00 57 1013.8
20260508061555 11 0 0.0 0.0 0.00 0.00 0.00 56 1013.7
20260508060100 11 0 0.0 0.0 0.00 0.00 0.00 55 1013.7
20260508054558 12 0 0.0 0.0 0.00 0.00 0.00 53 1013.6
20260508053101 12 0 0.0 0.0 0.00 0.00 0.00 51 1013.7
20260508051610 13 0 0.0 0.0 0.00 0.00 0.00 47 1013.7
20260508050103 14 0 0.0 0.0 0.00 0.00 0.00 46 1013.6
20260508044556 14 0 0.0 0.0 0.00 0.00 0.00 46 1013.5
20260508043108 15 0 0.0 1.6 0.00 0.00 0.00 43 1013.4
20260508041558 15 0 0.0 0.0 0.00 0.00 0.00 43 1013.5
20260508040101 15 0 0.0 1.6 0.00 0.00 0.00 43 1013.2
20260508034552 16 0 0.0 0.0 0.00 0.00 0.00 42 1013.2
20260508033053 16 0 0.0 0.0 0.00 0.00 0.00 40 1012.9
20260508031552 17 0 0.0 1.6 0.00 0.00 0.00 38 1012.7
20260508030057 18 0 0.0 0.0 0.00 0.00 0.00 31 1012.3
20260508024551 20 0 0.0 0.0 0.00 0.00 0.00 30 1012.2
20260508023053 21 0 0.0 0.0 0.00 0.00 0.00 27 1012.2
20260508021554 22 0 0.0 0.0 0.00 0.00 0.00 26 1012.2
20260508020101 22 0 0.0 0.0 0.00 0.00 0.00 25 1012.1
20260508014554 23 0 0.0 1.6 0.00 0.00 0.00 23 1012.1
20260508013054 23 0 0.0 4.8 0.00 0.00 0.00 21 1012.3
20260508011551 24 0 0.0 4.8 0.00 0.00 0.00 21 1012.4
20260508010053 24 187 0.0 8.0 0.00 0.00 0.00 21 1012.3
20260508004555 23 0 1.6 16.1 0.00 0.00 0.00 21 1012.5
20260508003055 24 0 3.2 12.9 0.00 0.00 0.00 21 1012.5
20260508001554 24 193 4.8 12.9 0.00 0.00 0.00 20 1012.7
20260508000058 25 194 3.2 11.3 0.00 0.00 0.00 20 1012.4
20260507234558 25 0 0.0 4.8 0.00 0.00 0.00 20 1012.8
20260507233115 25 0 0.0 16.1 0.00 0.00 0.00 22 1013.2
20260507231600 24 155 1.6 8.0 0.00 0.00 0.00 23 1013.3
20260507230052 23 167 0.0 6.4 0.00 0.00 0.00 24 1013.4
20260507224552 23 198 1.6 9.7 0.00 0.00 0.00 23 1013.8
20260507223105 22 206 3.2 9.7 0.00 0.00 0.00 22 1014.1
20260507221553 22 0 0.0 4.8 0.00 0.00 0.00 28 1014.3
20260507220051 22 0 0.0 4.8 0.00 0.00 0.00 25 1014.4
20260507214550 22 0 0.0 3.2 0.00 0.00 0.00 23 1014.6